Погода в Травном

Россия / Курганская область     55°34′30″N   66°50′50″E
темп.,
°C
ветер,
м/с
пор.,
м/с
влажн.,
%
обл.,
%
осадки,
мм/ч
давл.,
гПа
погр.,
м
23 мая, пн
пн2323:00+8юз71365100 0.8 1002686
02:00+6юз613803 0.0 1005459
05:00+5ююз511820 0.0 1007328
08:00+10ююз7106297 0.0 1008981
11:00+9ююв7977100 0.1 10071215
14:00+8юв5993100 2.5 1004515
17:00+12ююз61493100 3.9 1005811
20:00+12ююз41194100 0.1 1005427
24 мая, вт
вт2423:00+13юз61490100 0.2 1007526
02:00+12ююз51293100 0.0 1009332
05:00+12ю41192100 0.9 1010272
08:00+16ю697595 0.1 1010420
11:00+21ю71050100 0.1 10111086
14:00+25ю7133433 0.0 10102593
17:00+25юз610385 0.0 10102376
20:00+20ю33537 0.0 101136
25 мая, ср
ср2523:00+17ююв4655100 0.0 101280
02:00+16ююв41054100 0.0 1012133
05:00+15ююв4957100 0.0 1012143
08:00+19ююв51353100 0.0 1013374
11:00+24ююв71238100 0.0 10121081
14:00+25ююв71036100 0.0 10111828
17:00+25ююв6103899 0.0 10111760
20:00+20вюв41157100 0.0 1010211
26 мая, чт
чт2623:00+20юв71548100 0.0 1009340
02:00+17юв6155312 0.0 1008309
05:00+16вюв616565 0.0 1006305
08:00+21вюв8165032 0.0 1004548
11:00+26вюв111539100 0.0 10011041
14:00+29юв10163427 0.0 9983123
17:00+26юз913460 0.1 9971834
20:00+12з91488100 3.6 1004808
27 мая, пт
пт2723:00+10з81575100 3.8 1009815
02:00+8з6128242 0.0 1011572
05:00+7з511822 0.0 1013399
08:00+11з57641 0.0 1014742
11:00+14зюз685129 0.0 10151690
14:00+15зсз774836 0.0 10151867
17:00+15з554633 0.0 10151817
20:00+12ссв226283 0.0 101623